Elizabethton, TN

10:55 PM EST on December 04, 2016 (GMT -0500)
Elizabethton

Weather History for K0A9 - June, 2013

Change the Weather History Date:

Monday, June 3, 2013

  Actual Average (KTRI) Record (KTRI)
Temperature  
Mean Temperature 69 °F 68 °F  
Max Temperature 78 °F 80 °F 92 °F (1951)
Min Temperature 60 °F 57 °F 44 °F (1966)
Degree Days  
Heating Degree Days 0 1  
Month to date heating degree days 3  
Since 1 June heating degree days 3  
Since 1 July heating degree days 4366  
Cooling Degree Days 4 5  
Month to date cooling degree days 13  
Year to date cooling degree days 86  
Since 1 June cooling degree days 13  
Growing Degree Days 19 (Base 50)    
Moisture  
Dew Point 61 °F    
Average Humidity 81    
Maximum Humidity 100    
Minimum Humidity 51    
Precipitation  
Precipitation 0.00 in 0.13 in 1.48 in (1965)
Month to date precipitation 0.39  
Year to date precipitation 17.78  
Snow  
Snow 0.00 in 0.00 in - ()
Month to date snowfall 0.0  
Since 1 June snowfall 0.0  
Since 1 July snowfall 13.3  
Snow Depth -    
Sea Level Pressure  
Sea Level Pressure 29.97 in    
Wind  
Wind Speed 3 mph (West)    
Max Wind Speed 13 mph    
Max Gust Speed -    
Visibility 10 miles    
Events Rain    
T = Trace of Precipitation, MM = Missing Value Source: NWS Daily Summary

Daily Weather History Graph

Daily Weather History Graph

Search for Another Location

Airport or City:

Trip Planner

Search our weather history database for the weather conditions in past years. The results will help you decide how hot, cold, wet, or windy it might be!

Date:

Astronomy

Jun. 03, 2013 Rise Set
Actual Time 6:11 AM EDT 8:42 PM EDT
Civil Twilight 5:41 AM EDT 9:12 PM EDT
Nautical Twilight 5:04 AM EDT 9:49 PM EDT
Astronomical Twilight 4:23 AM EDT 10:30 PM EDT
Moon 3:01 AM EDT (6/3) 4:18 PM EDT (6/3)
Length of Visible Light 15h 30m
Length of Day
14h 30m
Waning Crescent, 22% of the Moon is Illuminated
Jun 3
Waning Crescent
Jun 8
New
Jun 16
First Quarter
Jun 23
Full
Jun 30
Last Quarter

Hourly Weather History & Observations

Time (EDT) Temp. Dew Point Humidity Pressure Visibility Wind Dir Wind Speed Gust Speed Precip Events Conditions
12:15 AM 62.6 °F 62.6 °F 100% 29.96 in 10.0 mi NNE 3.5 mph - N/A   Overcast
12:35 AM 62.6 °F 62.6 °F 100% 29.95 in 10.0 mi NNE 3.5 mph - N/A   Overcast
12:55 AM 62.6 °F 60.8 °F 94% 29.95 in 10.0 mi Calm Calm - N/A   Mostly Cloudy
1:15 AM 62.6 °F 60.8 °F 94% 29.95 in 10.0 mi NNE 3.5 mph - N/A   Overcast
1:35 AM 62.6 °F 60.8 °F 94% 29.95 in 10.0 mi NNE 3.5 mph - N/A   Overcast
1:55 AM 62.6 °F 60.8 °F 94% 29.95 in 10.0 mi Calm Calm - N/A   Overcast
2:15 AM 62.6 °F 62.6 °F 100% 29.95 in 10.0 mi Calm Calm - N/A   Overcast
2:35 AM 62.6 °F 62.6 °F 100% 29.95 in 10.0 mi Calm Calm - N/A   Overcast
2:55 AM 62.6 °F 62.6 °F 100% 29.95 in 10.0 mi Calm Calm - N/A   Overcast
3:15 AM 64.4 °F 62.6 °F 94% 29.94 in 10.0 mi Calm Calm - N/A   Overcast
3:35 AM 62.6 °F 62.6 °F 100% 29.95 in 10.0 mi Calm Calm - N/A   Overcast
3:55 AM 62.6 °F 62.6 °F 100% 29.94 in 10.0 mi Calm Calm - N/A   Overcast
4:15 AM 62.6 °F 62.6 °F 100% 29.94 in 10.0 mi Calm Calm - N/A   Overcast
4:35 AM 62.6 °F 62.6 °F 100% 29.94 in 10.0 mi Calm Calm - N/A   Overcast
4:55 AM 62.6 °F 62.6 °F 100% 29.94 in 10.0 mi Calm Calm - N/A   Overcast
5:15 AM 62.6 °F 62.6 °F 100% 29.94 in 10.0 mi Calm Calm - N/A   Overcast
5:35 AM 62.6 °F 62.6 °F 100% 29.94 in 10.0 mi Calm Calm - N/A   Overcast
5:55 AM 62.6 °F 62.6 °F 100% 29.95 in 7.0 mi Calm Calm - N/A Rain Rain
6:15 AM 62.6 °F 62.6 °F 100% 29.95 in 10.0 mi Calm Calm - N/A   Overcast
6:35 AM 62.6 °F 62.6 °F 100% 29.96 in 10.0 mi Calm Calm - N/A   Overcast
6:55 AM 62.6 °F 62.6 °F 100% 29.96 in 10.0 mi Calm Calm - N/A   Overcast
7:15 AM 64.4 °F 62.6 °F 94% 29.97 in 10.0 mi Calm Calm - N/A   Overcast
7:35 AM 62.6 °F 62.6 °F 100% 29.97 in 10.0 mi Calm Calm - N/A   Overcast
7:55 AM 64.4 °F 62.6 °F 94% 29.97 in 10.0 mi Calm Calm - N/A   Overcast
8:15 AM 64.4 °F 64.4 °F 100% 29.98 in 10.0 mi Calm Calm - N/A   Mostly Cloudy
8:35 AM 66.2 °F 62.6 °F 88% 29.98 in 10.0 mi Calm Calm - N/A   Mostly Cloudy
8:55 AM 66.2 °F 62.6 °F 88% 29.98 in 10.0 mi Calm Calm - N/A   Mostly Cloudy
9:15 AM 66.2 °F 62.6 °F 88% 29.98 in 10.0 mi WSW 4.6 mph - N/A   Mostly Cloudy
9:35 AM 69.8 °F 62.6 °F 78% 29.99 in 10.0 mi SSW 4.6 mph - N/A   Overcast
9:55 AM 68.0 °F 62.6 °F 83% 29.99 in 10.0 mi SW 3.5 mph - N/A   Overcast
10:15 AM 69.8 °F 64.4 °F 83% 29.98 in 10.0 mi SSW 4.6 mph - N/A   Mostly Cloudy
10:35 AM 71.6 °F 64.4 °F 78% 29.99 in 10.0 mi Variable 3.5 mph - N/A   Mostly Cloudy
10:55 AM 73.4 °F 62.6 °F 69% 29.99 in 10.0 mi Variable 4.6 mph - N/A   Mostly Cloudy
11:15 AM 73.4 °F 62.6 °F 69% 29.99 in 10.0 mi West 8.1 mph - N/A   Scattered Clouds
11:35 AM 73.4 °F 62.6 °F 69% 29.99 in 10.0 mi Variable 4.6 mph - N/A   Partly Cloudy
11:55 AM 73.4 °F 62.6 °F 69% 29.99 in 10.0 mi WSW 9.2 mph - N/A   Scattered Clouds
12:15 PM 73.4 °F 62.6 °F 69% 29.99 in 10.0 mi WSW 6.9 mph - N/A   Mostly Cloudy
12:35 PM 73.4 °F 62.6 °F 69% 29.99 in 10.0 mi Variable 6.9 mph - N/A   Mostly Cloudy
12:55 PM 75.2 °F 62.6 °F 65% 29.99 in 10.0 mi WSW 8.1 mph - N/A   Mostly Cloudy
1:15 PM 75.2 °F 62.6 °F 65% 29.99 in 10.0 mi West 8.1 mph - N/A   Mostly Cloudy
1:35 PM 77.0 °F 62.6 °F 61% 29.97 in 10.0 mi Variable 6.9 mph - N/A   Partly Cloudy
1:55 PM 73.4 °F 60.8 °F 65% 29.97 in 10.0 mi West 8.1 mph - N/A   Mostly Cloudy
2:15 PM 73.4 °F 60.8 °F 65% 29.97 in 10.0 mi WSW 6.9 mph - N/A   Mostly Cloudy
2:35 PM 75.2 °F 62.6 °F 65% 29.97 in 10.0 mi West 6.9 mph - N/A   Scattered Clouds
2:55 PM 75.2 °F 60.8 °F 61% 29.95 in 10.0 mi WSW 6.9 mph - N/A   Partly Cloudy
3:15 PM 75.2 °F 59.0 °F 57% 29.95 in 10.0 mi NW 12.7 mph - N/A   Scattered Clouds
3:35 PM 73.4 °F 57.2 °F 57% 29.95 in 10.0 mi WNW 9.2 mph - N/A Rain Light Rain
3:55 PM 75.2 °F 60.8 °F 61% 29.94 in 10.0 mi Variable 5.8 mph - N/A Rain Light Rain
4:15 PM 77.0 °F 60.8 °F 57% 29.93 in 10.0 mi Variable 5.8 mph - N/A   Partly Cloudy
4:35 PM 78.8 °F 60.8 °F 54% 29.93 in 10.0 mi WSW 8.1 mph - N/A   Partly Cloudy
4:55 PM 78.8 °F 59.0 °F 51% 29.93 in 10.0 mi West 9.2 mph - N/A Rain Light Rain
5:15 PM 77.0 °F 59.0 °F 54% 29.93 in 10.0 mi Variable 3.5 mph - N/A Rain Light Rain
5:35 PM 77.0 °F 59.0 °F 54% 29.93 in 10.0 mi WNW 5.8 mph - N/A Rain Light Rain
5:55 PM 75.2 °F 59.0 °F 57% 29.92 in 10.0 mi West 6.9 mph - N/A   Scattered Clouds
6:15 PM 75.2 °F 57.2 °F 53% 29.93 in 10.0 mi West 8.1 mph - N/A   Partly Cloudy
6:35 PM 75.2 °F 59.0 °F 57% 29.93 in 10.0 mi WNW 4.6 mph - N/A   Clear
6:55 PM 73.4 °F 60.8 °F 65% 29.93 in 10.0 mi Calm Calm - N/A   Partly Cloudy
7:15 PM 73.4 °F 60.8 °F 65% 29.94 in 10.0 mi North 4.6 mph - N/A   Scattered Clouds
7:35 PM 71.6 °F 60.8 °F 69% 29.95 in 10.0 mi Calm Calm - N/A   Partly Cloudy
7:55 PM 71.6 °F 59.0 °F 64% 29.95 in 10.0 mi Variable 4.6 mph - N/A   Partly Cloudy
8:15 PM 69.8 °F 62.6 °F 78% 29.96 in 10.0 mi Calm Calm - N/A   Clear
8:35 PM 68.0 °F 60.8 °F 78% 29.97 in 10.0 mi Calm Calm - N/A   Clear
8:55 PM 64.4 °F 60.8 °F 88% 29.98 in 10.0 mi Calm Calm - N/A   Partly Cloudy
9:15 PM 64.4 °F 60.8 °F 88% 29.98 in 10.0 mi Calm Calm - N/A   Partly Cloudy
9:35 PM 64.4 °F 60.8 °F 88% 29.99 in 10.0 mi Calm Calm - N/A   Scattered Clouds
9:55 PM 64.4 °F 60.8 °F 88% 30.00 in 10.0 mi Calm Calm - N/A   Mostly Cloudy
10:15 PM 64.4 °F 60.8 °F 88% 30.02 in 10.0 mi Calm Calm - N/A   Mostly Cloudy
10:35 PM 64.4 °F 60.8 °F 88% 30.03 in 10.0 mi SE 3.5 mph - N/A   Scattered Clouds
10:55 PM 64.4 °F 60.8 °F 88% 30.03 in 10.0 mi Calm Calm - N/A   Partly Cloudy
11:15 PM 60.8 °F 59.0 °F 94% 30.04 in 10.0 mi Calm Calm - N/A   Partly Cloudy
11:35 PM 60.8 °F 59.0 °F 94% 30.04 in 10.0 mi Calm Calm - N/A   Scattered Clouds
11:55 PM 60.8 °F 59.0 °F 94% 30.04 in 10.0 mi Calm Calm - N/A   Mostly Cloudy